This demonstration page uses our WeatherBlox Daily Observations layout. Learn more.

Left ArrowRight Arrow

Hourly Observations for September 22, 2015

Temp ( °F °C ) Dew Point ( °F °C ) Humidity (%) Winds ( mph kmh ) Pressure ( in mb ) Visibility ( mi km ) Precip ( " mm )
12:53 am 00:53 Clear 65 18.3 62 16.7 90 90 SSE 7 11 29.91 1013 9 14 0.00 0.00
1:53 am 01:53 Clear 65 18.3 62 16.7 90 90 SSE 6 9 29.90 1012 9 14 0.00 0.00
2:53 am 02:53 Clear 65 18.3 63 17.2 93 93 SSE 6 9 29.89 1012 8 13 0.00 0.00
3:53 am 03:53 Clear 65 18.3 63 17.2 93 93 SSE 7 11 29.88 1012 8 13 0.00 0.00
4:53 am 04:53 Clear 65 18.3 63 17.2 93 93 SSE 8 13 29.88 1012 7 11 0.00 0.00
5:44 am 05:44 Mostly Cloudy with Thunderstorms 64 18 63 17 94 94 S 9 15 29.88 1012 4 6 0.00 0.00
5:53 am 05:53 Mostly Cloudy with Strong Thunderstorms 66 18.9 64 17.8 93 93 S 14 22 29.89 1012 3 5 0.08 2.03
6:28 am 06:28 Mostly Cloudy with Nearby Thunderstorms 66 19 64 18 94 94 SSE 8 13 29.88 1012 7 11 0.00 0.00
6:37 am 06:37 Mostly Cloudy 66 18.9 64 17.8 93 93 S 8 13 29.88 1012 7 11 0.01 0.25
6:53 am 06:53 Partly Cloudy 66 18.9 64 17.8 93 93 S 7 11 29.91 1013 7 11 0.01 0.25
7:53 am 07:53 Sunny with Mist and Fog 65 18.3 63 17.2 93 93 Calm 29.95 1014 4 6 0.00 0.00
8:22 am 08:22 Sunny with Mist and Fog 64 18 63 17 94 94 ENE 3 6 29.97 1015 3 4 0.00 0.00
8:53 am 08:53 Sunny with Mist and Fog 65 18.3 63 17.2 93 93 ESE 5 7 29.96 1015 3 4 0.00 0.00
9:13 am 09:13 Sunny with Mist and Fog 65 18.3 64 17.8 97 97 E 3 6 29.97 1015 3 5 0.00 0.00
9:53 am 09:53 Sunny with Mist and Fog 67 19.4 65 18.3 93 93 ESE 6 9 29.98 1015 4 6 0.00 0.00
10:53 am 10:53 Sunny 72 22.2 66 18.9 82 82 S 8 13 29.98 1015 9 14 0.00 0.00
11:53 am 11:53 Sunny 78 25.6 66 18.9 67 67 SSW 9 15 29.97 1015 10 16 0.00 0.00
12:53 pm 12:53 Sunny 83 28.3 65 18.3 55 55 SW 6 9 29.96 1015 10 16 0.00 0.00
1:53 pm 13:53 Sunny 88 31.1 64 17.8 45 45 S 8 13 29.94 1014 10 16 0.00 0.00
2:53 pm 14:53 Sunny 89 31.7 64 17.8 43 43 SSW 10 17 29.93 1013 10 16 0.00 0.00
3:53 pm 15:53 Sunny 89 31.7 65 18.3 45 45 S 8 13 29.92 1013 10 16 0.00 0.00
4:53 pm 16:53 Sunny 90 32.2 64 17.8 42 42 SSE 10 17 29.91 1013 9 14 0.00 0.00
5:53 pm 17:53 Sunny 89 31.7 65 18.3 45 45 SSE 14 22 29.91 1013 10 16 0.00 0.00
6:53 pm 18:53 Sunny 85 29.4 64 17.8 50 50 SE 10 17 29.92 1013 10 16 0.00 0.00
7:53 pm 19:53 Clear 81 27.2 66 18.9 61 61 SE 14 22 29.94 1014 10 16 0.00 0.00
8:53 pm 20:53 Clear 77 25 66 18.9 69 69 ESE 12 19 29.98 1015 10 16 0.00 0.00
9:53 pm 21:53 Clear 75 23.9 66 18.9 74 74 SE 17 28 30.01 1016 10 16 0.00 0.00
10:53 pm 22:53 Clear 76 24.4 66 18.9 72 72 SSE 12 19 30.02 1017 10 16 0.00 0.00
11:53 pm 23:53 Clear 73 22.8 66 18.9 79 79 SE 10 17 29.99 1016 10 16 0.00 0.00

Powered by AerisWeather